User: anonymous   Login
Location: ROBOsky.com Wild Flower Ridge Observatory
(43.9736°N, 79.9739°W)
Time: 19:05:19
(UTC-04:00)
Language:

Cosmos 1190 Rocket - Orbit

View from above orbital plane
View from above orbital plane
View from above satellite
View from above satellite

Ground track
Ground track

The orbit data is extracted from the following two-line orbital elements,

1 11870U 80056B   16208.93160592 +.00000005 +00000-0 +10383-4 0  9992
2 11870 074.0526 084.9816 0015589 120.7036 239.5655 14.36807805864258
Epoch (UTC): 26 July 2016 22:21:30
Eccentricity: 0.0015589
inclination: 74.0526°
perigee height: 758 km
apogee height: 780 km
right ascension of ascending node: 84.9816°
argument of perigee: 120.7036°
revolutions per day: 14.36807805
mean anomaly at epoch: 239.5655°
orbit number at epoch: 86425

The dashed part of the orbit path shows where the satellite is in the earth's shadow,  

DLR